Location: Unspecified
(0.0000°N, 0.0000°E)
Time: 14:51:27
(UTC+02:00)

Meteor PRIRODA - Visible Passes

Search period start: 29 June 2016 00:00
Search period end: 09 July 2016 00:00
Orbit: 497 x 517 km, 97.4° (Epoch: 29 June)

Date Brightness Start Highest point End Pass type
(mag) Time Alt. Az. Time Alt. Az. Time Alt. Az.
29 Jun 5.5 06:49:41 10° NNW 06:51:11 16° NW 06:51:11 16° NW visible
30 Jun 5.0 06:31:34 10° NNW 06:33:33 26° NW 06:33:33 26° NW visible
01 Jul 5.0 06:13:54 10° N 06:15:56 31° N 06:15:56 31° N visible
02 Jul 5.7 05:56:35 10° NNE 05:58:18 25° NE 05:58:18 25° NE visible
03 Jul 6.5 05:39:39 10° NE 05:40:40 16° NE 05:40:40 16° NE visible
04 Jul 5.7 06:56:59 10° NW 06:57:53 13° WNW 06:57:53 13° WNW visible
05 Jul 5.3 06:38:33 10° NNW 06:40:15 21° NW 06:40:15 21° NW visible
06 Jul 5.1 06:20:44 10° N 06:22:37 28° NNW 06:22:37 28° NNW visible
07 Jul 5.5 06:03:16 10° NNE 06:04:58 26° NNE 06:04:58 26° NNE visible
08 Jul 6.3 05:46:10 10° NE 05:47:21 18° NE 05:47:21 18° NE visible
